| time (UTC) | temp F | wind direction | speed knots | gust knots | rain 1hr in | rain 24hr in | rain mn in | humidity % | barometer mb |
| 20260508034003 | 48 | 254 | 0.0 | 0.9 | 0.00 | 0.03 | 0.00 | 95 | 1013.1 |
| 20260508033503 | 48 | 254 | 0.0 | 0.9 | 0.00 | 0.03 | 0.00 | 94 | 1013.2 |
| 20260508033003 | 49 | 254 | 0.0 | 0.9 | 0.00 | 0.03 | 0.00 | 94 | 1013.1 |
| 20260508032718 | 49 | 254 | 0.0 | 0.9 | 0.00 | 0.03 | 0.00 | 94 | 1013.1 |
| 20260508032219 | 49 | 254 | 0.0 | 1.7 | 0.00 | 0.03 | 0.00 | 94 | 1013.1 |
| 20260508031503 | 49 | 254 | 0.0 | 0.9 | 0.00 | 0.03 | 0.00 | 94 | 1013.1 |
| 20260508031003 | 49 | 254 | 0.0 | 1.7 | 0.00 | 0.03 | 0.00 | 94 | 1013.0 |
| 20260508030503 | 49 | 254 | 0.0 | 1.7 | 0.00 | 0.03 | 0.00 | 94 | 1013.1 |
| 20260508030003 | 49 | 254 | 0.0 | 1.7 | 0.00 | 0.03 | 0.00 | 94 | 1013.0 |
| 20260508025716 | 49 | 254 | 0.0 | 1.7 | 0.00 | 0.03 | 0.00 | 94 | 1013.1 |
| 20260508025003 | 49 | 254 | 0.0 | 0.9 | 0.00 | 0.03 | 0.00 | 94 | 1013.1 |
| 20260508024503 | 49 | 254 | 0.0 | 0.9 | 0.00 | 0.03 | 0.00 | 94 | 1013.1 |
| 20260508024003 | 49 | 254 | 0.0 | 1.7 | 0.00 | 0.03 | 0.00 | 94 | 1013.0 |
| 20260508023503 | 49 | 254 | 0.9 | 1.7 | 0.00 | 0.03 | 0.00 | 94 | 1013.1 |
| 20260508023003 | 49 | 254 | 0.9 | 2.6 | 0.00 | 0.03 | 0.00 | 94 | 1013.1 |
| 20260508022503 | 49 | 253 | 0.9 | 2.6 | 0.00 | 0.03 | 0.00 | 94 | 1013.1 |
| 20260508022003 | 49 | 252 | 0.9 | 2.6 | 0.00 | 0.03 | 0.00 | 94 | 1013.0 |
| 20260508021503 | 49 | 251 | 0.9 | 2.6 | 0.00 | 0.03 | 0.00 | 94 | 1013.0 |
| 20260508021216 | 49 | 252 | 0.9 | 2.6 | 0.00 | 0.03 | 0.00 | 94 | 1012.9 |
| 20260508020503 | 49 | 252 | 0.9 | 2.6 | 0.00 | 0.03 | 0.00 | 93 | 1012.8 |
| 20260508020003 | 49 | 251 | 0.9 | 2.6 | 0.00 | 0.03 | 0.00 | 93 | 1012.8 |
| 20260508015503 | 49 | 235 | 0.9 | 2.6 | 0.00 | 0.03 | 0.00 | 93 | 1012.7 |
| 20260508015003 | 49 | 222 | 0.9 | 2.6 | 0.00 | 0.03 | 0.00 | 93 | 1012.7 |
| 20260508014503 | 49 | 222 | 0.9 | 2.6 | 0.00 | 0.03 | 0.00 | 93 | 1012.6 |
| 20260508014003 | 49 | 222 | 0.9 | 2.6 | 0.00 | 0.03 | 0.00 | 93 | 1012.7 |
| 20260508013719 | 49 | 222 | 0.9 | 2.6 | 0.00 | 0.03 | 0.00 | 93 | 1012.7 |
| 20260508013003 | 49 | 222 | 0.9 | 1.7 | 0.00 | 0.03 | 0.00 | 93 | 1012.7 |
| 20260508012503 | 49 | 222 | 0.9 | 2.6 | 0.00 | 0.03 | 0.00 | 93 | 1012.7 |
| 20260508012003 | 49 | 222 | 0.9 | 2.6 | 0.00 | 0.03 | 0.00 | 93 | 1012.6 |
| 20260508011719 | 49 | 222 | 0.9 | 2.6 | 0.00 | 0.03 | 0.00 | 93 | 1012.6 |
| 20260508011003 | 49 | 215 | 0.9 | 3.5 | 0.00 | 0.03 | 0.00 | 93 | 1012.5 |
| 20260508010503 | 49 | 213 | 0.9 | 3.5 | 0.00 | 0.03 | 0.00 | 93 | 1012.6 |
| 20260508010003 | 50 | 225 | 0.9 | 2.6 | 0.00 | 0.03 | 0.00 | 93 | 1012.7 |
| 20260508005503 | 50 | 245 | 0.9 | 2.6 | 0.00 | 0.03 | 0.00 | 93 | 1012.5 |
| 20260508005216 | 50 | 255 | 0.9 | 2.6 | 0.00 | 0.03 | 0.00 | 93 | 1012.6 |
| 20260508004717 | 50 | 231 | 0.9 | 3.5 | 0.00 | 0.03 | 0.00 | 93 | 1012.5 |
| 20260508004003 | 50 | 217 | 1.7 | 3.5 | 0.00 | 0.03 | 0.00 | 93 | 1012.5 |
| 20260508003719 | 50 | 218 | 1.7 | 3.5 | 0.00 | 0.03 | 0.00 | 93 | 1012.5 |
| 20260508003003 | 50 | 231 | 0.9 | 2.6 | 0.00 | 0.03 | 0.00 | 93 | 1012.5 |
| 20260508002504 | 50 | 231 | 0.9 | 2.6 | 0.00 | 0.03 | 0.00 | 93 | 1012.5 |
| 20260508002004 | 50 | 225 | 0.9 | 2.6 | 0.00 | 0.03 | 0.00 | 93 | 1012.5 |
| 20260508001504 | 50 | 225 | 0.9 | 3.5 | 0.00 | 0.03 | 0.00 | 92 | 1012.5 |
| 20260508001216 | 50 | 225 | 0.9 | 3.5 | 0.00 | 0.03 | 0.00 | 92 | 1012.5 |
| 20260508000503 | 50 | 225 | 0.9 | 2.6 | 0.00 | 0.03 | 0.00 | 92 | 1012.4 |
| 20260508000003 | 50 | 225 | 1.7 | 2.6 | 0.00 | 0.03 | 0.00 | 92 | 1012.5 |
| 20260507235503 | 50 | 225 | 0.9 | 2.6 | 0.00 | 0.03 | 0.00 | 92 | 1012.4 |
| 20260507235003 | 50 | 225 | 0.9 | 2.6 | 0.00 | 0.03 | 0.00 | 92 | 1012.4 |
| 20260507234503 | 50 | 225 | 0.9 | 2.6 | 0.00 | 0.03 | 0.00 | 92 | 1012.2 |
| 20260507234003 | 50 | 224 | 0.9 | 2.6 | 0.00 | 0.03 | 0.00 | 92 | 1012.3 |
| 20260507233503 | 50 | 220 | 0.9 | 2.6 | 0.00 | 0.03 | 0.00 | 92 | 1012.3 |
| 20260507233003 | 50 | 215 | 0.0 | 1.7 | 0.00 | 0.03 | 0.00 | 92 | 1012.2 |
| 20260507232503 | 50 | 215 | 0.9 | 1.7 | 0.00 | 0.03 | 0.00 | 92 | 1012.2 |
| 20260507232003 | 50 | 215 | 0.0 | 1.7 | 0.00 | 0.03 | 0.00 | 92 | 1012.1 |
| 20260507231503 | 50 | 215 | 0.0 | 1.7 | 0.01 | 0.03 | 0.00 | 92 | 1012.2 |
| 20260507231003 | 51 | 215 | 0.0 | 1.7 | 0.01 | 0.03 | 0.00 | 92 | 1012.2 |
| 20260507230717 | 51 | 215 | 0.0 | 1.7 | 0.02 | 0.03 | 0.00 | 92 | 1012.2 |
| 20260507230217 | 51 | 215 | 0.0 | 1.7 | 0.03 | 0.03 | 0.00 | 91 | 1012.2 |
| 20260507225718 | 51 | 215 | 0.0 | 0.9 | 0.03 | 0.03 | 0.03 | 91 | 1012.2 |
| 20260507225219 | 51 | 215 | 0.0 | 0.9 | 0.03 | 0.03 | 0.03 | 91 | 1012.2 |
| 20260507224716 | 51 | 215 | 0.0 | 0.9 | 0.03 | 0.03 | 0.03 | 91 | 1012.2 |
| 20260507224003 | 51 | 215 | 0.0 | 0.9 | 0.03 | 0.03 | 0.03 | 90 | 1012.2 |
| 20260507223503 | 51 | 215 | 0.0 | 0.9 | 0.03 | 0.03 | 0.03 | 90 | 1012.2 |
| 20260507223003 | 51 | 215 | 0.0 | 0.9 | 0.03 | 0.03 | 0.03 | 90 | 1012.2 |
| 20260507222503 | 51 | 215 | 0.0 | 1.7 | 0.03 | 0.03 | 0.03 | 90 | 1012.3 |
| 20260507222217 | 51 | 215 | 0.0 | 1.7 | 0.03 | 0.03 | 0.03 | 89 | 1012.2 |
| 20260507221503 | 51 | 215 | 0.9 | 2.6 | 0.02 | 0.02 | 0.02 | 89 | 1012.2 |
| 20260507221003 | 51 | 215 | 0.9 | 2.6 | 0.02 | 0.02 | 0.02 | 89 | 1012.1 |
| 20260507220503 | 51 | 215 | 0.9 | 2.6 | 0.00 | 0.00 | 0.00 | 89 | 1012.1 |
| 20260507220003 | 51 | 215 | 0.0 | 1.7 | 0.00 | 0.00 | 0.00 | 89 | 1012.1 |
| 20260507215503 | 51 | 215 | 0.0 | 0.9 | 0.00 | 0.00 | 0.00 | 90 | 1012.1 |
| 20260507215003 | 51 | 215 | 0.0 | 1.7 | 0.00 | 0.00 | 0.00 | 90 | 1011.9 |
| 20260507214503 | 51 | 215 | 0.9 | 1.7 | 0.00 | 0.00 | 0.00 | 90 | 1012.0 |
| 20260507214003 | 51 | 207 | 0.9 | 2.6 | 0.00 | 0.00 | 0.00 | 90 | 1011.9 |
| 20260507213503 | 51 | 174 | 0.9 | 2.6 | 0.00 | 0.00 | 0.00 | 90 | 1011.9 |
| 20260507213003 | 51 | 184 | 0.9 | 4.3 | 0.00 | 0.00 | 0.00 | 90 | 1011.9 |
| 20260507212503 | 51 | 214 | 1.7 | 5.2 | 0.00 | 0.00 | 0.00 | 90 | 1011.9 |
| 20260507212003 | 51 | 214 | 1.7 | 5.2 | 0.00 | 0.00 | 0.00 | 90 | 1011.8 |
| 20260507211503 | 51 | 213 | 2.6 | 7.0 | 0.00 | 0.00 | 0.00 | 90 | 1011.9 |
| 20260507211003 | 51 | 198 | 2.6 | 7.0 | 0.00 | 0.00 | 0.00 | 90 | 1011.8 |
| 20260507210503 | 51 | 187 | 1.7 | 5.2 | 0.00 | 0.00 | 0.00 | 90 | 1011.5 |
| 20260507210003 | 51 | 201 | 1.7 | 6.1 | 0.00 | 0.00 | 0.00 | 90 | 1011.4 |
| 20260507205503 | 51 | 193 | 1.7 | 6.1 | 0.00 | 0.00 | 0.00 | 90 | 1011.5 |
| 20260507205003 | 51 | 169 | 2.6 | 6.1 | 0.00 | 0.00 | 0.00 | 90 | 1011.4 |
| 20260507204503 | 52 | 166 | 2.6 | 6.1 | 0.00 | 0.00 | 0.00 | 90 | 1011.2 |
| 20260507204003 | 52 | 172 | 2.6 | 7.8 | 0.00 | 0.00 | 0.00 | 90 | 1011.2 |
| 20260507203717 | 52 | 172 | 2.6 | 7.8 | 0.00 | 0.00 | 0.00 | 90 | 1011.2 |
| 20260507203003 | 52 | 173 | 2.6 | 8.7 | 0.00 | 0.00 | 0.00 | 90 | 1011.2 |
| 20260507202503 | 52 | 180 | 2.6 | 8.7 | 0.00 | 0.00 | 0.00 | 90 | 1011.2 |
| 20260507202003 | 52 | 176 | 3.5 | 7.8 | 0.00 | 0.00 | 0.00 | 90 | 1011.1 |
| 20260507201503 | 52 | 170 | 3.5 | 7.8 | 0.00 | 0.00 | 0.00 | 90 | 1011.1 |
| 20260507201218 | 52 | 170 | 3.5 | 7.8 | 0.00 | 0.00 | 0.00 | 90 | 1011.1 |
| 20260507200719 | 52 | 169 | 4.3 | 10.4 | 0.00 | 0.00 | 0.00 | 90 | 1010.9 |
| 20260507200003 | 52 | 169 | 4.3 | 10.4 | 0.00 | 0.00 | 0.00 | 89 | 1010.9 |
| 20260507195503 | 53 | 171 | 4.3 | 9.6 | 0.00 | 0.00 | 0.00 | 89 | 1010.9 |
| 20260507195003 | 53 | 173 | 4.3 | 10.4 | 0.00 | 0.00 | 0.00 | 88 | 1011.0 |
| 20260507194503 | 53 | 172 | 5.2 | 10.4 | 0.00 | 0.00 | 0.00 | 88 | 1011.0 |
| 20260507194003 | 53 | 170 | 4.3 | 10.4 | 0.00 | 0.00 | 0.00 | 88 | 1011.0 |
| 20260507193717 | 53 | 167 | 3.5 | 9.6 | 0.00 | 0.00 | 0.00 | 88 | 1010.9 |
| 20260507193003 | 53 | 164 | 3.5 | 8.7 | 0.00 | 0.00 | 0.00 | 88 | 1010.9 |
| 20260507192503 | 53 | 165 | 4.3 | 9.6 | 0.00 | 0.00 | 0.00 | 87 | 1010.9 |
| 20260507192003 | 53 | 166 | 4.3 | 9.6 | 0.00 | 0.00 | 0.00 | 87 | 1010.9 |
| 20260507191717 | 53 | 165 | 4.3 | 9.6 | 0.00 | 0.00 | 0.00 | 86 | 1010.9 |
| 20260507191003 | 53 | 168 | 4.3 | 10.4 | 0.00 | 0.00 | 0.00 | 86 | 1011.0 |
| 20260507190503 | 53 | 170 | 5.2 | 10.4 | 0.00 | 0.00 | 0.00 | 85 | 1010.9 |
| 20260507190004 | 54 | 170 | 5.2 | 11.3 | 0.00 | 0.00 | 0.00 | 85 | 1011.0 |
| 20260507185716 | 54 | 169 | 5.2 | 11.3 | 0.00 | 0.00 | 0.00 | 84 | 1011.0 |
| 20260507185003 | 54 | 167 | 5.2 | 11.3 | 0.00 | 0.00 | 0.00 | 83 | 1011.0 |
| 20260507184503 | 54 | 170 | 4.3 | 10.4 | 0.00 | 0.00 | 0.00 | 83 | 1011.0 |
| 20260507184003 | 55 | 171 | 4.3 | 10.4 | 0.00 | 0.00 | 0.00 | 82 | 1011.0 |
| 20260507183503 | 55 | 167 | 4.3 | 9.6 | 0.00 | 0.00 | 0.00 | 82 | 1010.9 |
| 20260507183003 | 55 | 168 | 4.3 | 9.6 | 0.00 | 0.00 | 0.00 | 81 | 1010.9 |
| 20260507182503 | 55 | 171 | 4.3 | 12.2 | 0.00 | 0.00 | 0.00 | 81 | 1010.9 |
| 20260507182219 | 55 | 172 | 5.2 | 12.2 | 0.00 | 0.00 | 0.00 | 81 | 1010.9 |
| 20260507181503 | 55 | 167 | 4.3 | 11.3 | 0.00 | 0.00 | 0.00 | 80 | 1010.9 |
| 20260507181003 | 55 | 167 | 4.3 | 9.6 | 0.00 | 0.00 | 0.00 | 80 | 1010.9 |
| 20260507180503 | 55 | 165 | 3.5 | 10.4 | 0.00 | 0.00 | 0.00 | 80 | 1011.1 |
| 20260507180003 | 55 | 162 | 3.5 | 10.4 | 0.00 | 0.00 | 0.00 | 79 | 1011.1 |
| 20260507175716 | 55 | 165 | 3.5 | 10.4 | 0.00 | 0.00 | 0.00 | 79 | 1011.1 |
| 20260507175217 | 56 | 171 | 3.5 | 11.3 | 0.00 | 0.00 | 0.00 | 79 | 1011.0 |
| 20260507174503 | 56 | 169 | 4.3 | 10.4 | 0.00 | 0.00 | 0.00 | 79 | 1011.0 |
| 20260507174003 | 56 | 173 | 3.5 | 10.4 | 0.00 | 0.00 | 0.00 | 79 | 1011.1 |
| 20260507173503 | 56 | 173 | 3.5 | 8.7 | 0.00 | 0.00 | 0.00 | 80 | 1011.0 |
| 20260507173217 | 56 | 174 | 3.5 | 9.6 | 0.00 | 0.00 | 0.00 | 79 | 1011.2 |
| 20260507172503 | 56 | 170 | 4.3 | 10.4 | 0.00 | 0.00 | 0.00 | 79 | 1011.1 |
| 20260507172219 | 56 | 166 | 4.3 | 10.4 | 0.00 | 0.00 | 0.00 | 79 | 1011.1 |
| 20260507171503 | 56 | 165 | 4.3 | 10.4 | 0.00 | 0.00 | 0.00 | 79 | 1011.1 |
| 20260507171003 | 56 | 169 | 4.3 | 10.4 | 0.00 | 0.00 | 0.00 | 80 | 1011.1 |
| 20260507170503 | 56 | 166 | 4.3 | 9.6 | 0.00 | 0.00 | 0.00 | 80 | 1011.1 |
| 20260507170003 | 56 | 162 | 4.3 | 10.4 | 0.00 | 0.00 | 0.00 | 80 | 1011.1 |
| 20260507165504 | 56 | 169 | 4.3 | 11.3 | 0.00 | 0.00 | 0.00 | 80 | 1011.2 |
| 20260507165003 | 56 | 167 | 5.2 | 11.3 | 0.00 | 0.00 | 0.00 | 80 | 1011.2 |
| 20260507164503 | 56 | 166 | 6.1 | 12.2 | 0.00 | 0.00 | 0.00 | 79 | 1011.2 |
| 20260507164003 | 56 | 166 | 5.2 | 13.0 | 0.00 | 0.00 | 0.00 | 79 | 1011.2 |
| 20260507163503 | 56 | 164 | 5.2 | 13.0 | 0.00 | 0.00 | 0.00 | 79 | 1011.2 |
| 20260507163003 | 57 | 166 | 5.2 | 12.2 | 0.00 | 0.00 | 0.00 | 78 | 1011.2 |
| 20260507162718 | 56 | 169 | 5.2 | 12.2 | 0.00 | 0.00 | 0.00 | 78 | 1011.2 |
| 20260507162003 | 56 | 167 | 5.2 | 11.3 | 0.00 | 0.00 | 0.00 | 78 | 1011.2 |
| 20260507161503 | 56 | 168 | 5.2 | 13.0 | 0.00 | 0.00 | 0.00 | 77 | 1011.2 |
| 20260507161003 | 56 | 170 | 5.2 | 13.0 | 0.00 | 0.00 | 0.00 | 78 | 1011.1 |
| 20260507160717 | 55 | 169 | 4.3 | 10.4 | 0.00 | 0.00 | 0.00 | 79 | 1011.2 |
| 20260507160003 | 55 | 166 | 5.2 | 13.0 | 0.00 | 0.00 | 0.00 | 78 | 1011.3 |
| 20260507155719 | 55 | 166 | 5.2 | 13.0 | 0.00 | 0.00 | 0.00 | 77 | 1011.3 |
| 20260507155003 | 56 | 167 | 5.2 | 13.9 | 0.00 | 0.00 | 0.00 | 75 | 1011.3 |
| 20260507154503 | 56 | 172 | 5.2 | 13.9 | 0.00 | 0.00 | 0.00 | 73 | 1011.3 |
| 20260507154003 | 57 | 179 | 4.3 | 12.2 | 0.00 | 0.00 | 0.00 | 72 | 1011.3 |
| 20260507153504 | 57 | 173 | 5.2 | 14.8 | 0.00 | 0.00 | 0.00 | 71 | 1011.2 |
| 20260507153003 | 57 | 167 | 5.2 | 14.8 | 0.00 | 0.00 | 0.00 | 72 | 1011.2 |
| 20260507152503 | 58 | 166 | 5.2 | 13.0 | 0.00 | 0.00 | 0.00 | 72 | 1011.2 |
| 20260507152218 | 58 | 166 | 5.2 | 13.0 | 0.00 | 0.00 | 0.00 | 72 | 1011.2 |
| 20260507151504 | 59 | 163 | 4.3 | 12.2 | 0.00 | 0.00 | 0.00 | 72 | 1011.1 |
| 20260507151216 | 58 | 164 | 4.3 | 12.2 | 0.00 | 0.00 | 0.00 | 71 | 1011.2 |
| 20260507150503 | 58 | 162 | 4.3 | 9.6 | 0.00 | 0.00 | 0.00 | 68 | 1011.2 |
| 20260507150003 | 59 | 158 | 4.3 | 9.6 | 0.00 | 0.00 | 0.00 | 67 | 1011.2 |
| 20260507145503 | 59 | 155 | 3.5 | 9.6 | 0.00 | 0.00 | 0.00 | 67 | 1011.3 |
| 20260507145003 | 58 | 159 | 4.3 | 10.4 | 0.00 | 0.00 | 0.00 | 65 | 1011.3 |
| 20260507144503 | 58 | 166 | 5.2 | 10.4 | 0.00 | 0.00 | 0.00 | 64 | 1011.4 |
| 20260507144218 | 57 | 167 | 5.2 | 10.4 | 0.00 | 0.00 | 0.00 | 65 | 1011.3 |
| 20260507143503 | 58 | 170 | 5.2 | 13.9 | 0.00 | 0.00 | 0.00 | 62 | 1011.4 |
| 20260507143003 | 57 | 169 | 4.3 | 13.9 | 0.00 | 0.00 | 0.00 | 61 | 1011.6 |
| 20260507142503 | 57 | 163 | 3.5 | 8.7 | 0.00 | 0.00 | 0.00 | 66 | 1011.6 |
| 20260507142003 | 56 | 165 | 3.5 | 10.4 | 0.00 | 0.00 | 0.00 | 66 | 1011.6 |
| 20260507141503 | 56 | 165 | 4.3 | 11.3 | 0.00 | 0.00 | 0.00 | 67 | 1011.6 |
| 20260507141003 | 56 | 167 | 5.2 | 12.2 | 0.00 | 0.00 | 0.00 | 65 | 1011.6 |
| 20260507140503 | 57 | 164 | 5.2 | 12.2 | 0.00 | 0.00 | 0.00 | 66 | 1011.6 |
| 20260507140003 | 57 | 168 | 4.3 | 11.3 | 0.00 | 0.00 | 0.00 | 65 | 1011.6 |
| 20260507135503 | 57 | 174 | 4.3 | 11.3 | 0.00 | 0.00 | 0.00 | 68 | 1011.5 |
| 20260507135003 | 56 | 165 | 5.2 | 9.6 | 0.00 | 0.00 | 0.00 | 70 | 1011.6 |
| 20260507134503 | 56 | 162 | 5.2 | 12.2 | 0.00 | 0.00 | 0.00 | 70 | 1011.8 |
| 20260507134003 | 56 | 167 | 5.2 | 12.2 | 0.00 | 0.00 | 0.00 | 71 | 1011.7 |
| 20260507133504 | 56 | 166 | 5.2 | 10.4 | 0.00 | 0.00 | 0.00 | 71 | 1011.7 |
| 20260507133003 | 56 | 173 | 4.3 | 8.7 | 0.00 | 0.00 | 0.00 | 71 | 1011.6 |
| 20260507132503 | 56 | 179 | 4.3 | 16.5 | 0.00 | 0.00 | 0.00 | 71 | 1011.7 |
| 20260507132003 | 56 | 171 | 5.2 | 16.5 | 0.00 | 0.00 | 0.00 | 71 | 1011.7 |
| 20260507131718 | 57 | 175 | 5.2 | 12.2 | 0.00 | 0.00 | 0.00 | 72 | 1011.7 |
| 20260507131219 | 57 | 174 | 5.2 | 11.3 | 0.00 | 0.00 | 0.00 | 71 | 1011.6 |
| 20260507130503 | 57 | 168 | 5.2 | 13.0 | 0.00 | 0.00 | 0.00 | 71 | 1011.6 |
| 20260507130003 | 58 | 173 | 4.3 | 12.2 | 0.00 | 0.00 | 0.00 | 70 | 1011.7 |
| 20260507125503 | 59 | 177 | 4.3 | 12.2 | 0.00 | 0.00 | 0.00 | 70 | 1011.6 |
| 20260507125003 | 59 | 169 | 4.3 | 12.2 | 0.00 | 0.00 | 0.00 | 69 | 1011.8 |
| 20260507124503 | 58 | 172 | 4.3 | 10.4 | 0.00 | 0.00 | 0.00 | 72 | 1011.7 |
| 20260507124003 | 57 | 179 | 5.2 | 11.3 | 0.00 | 0.00 | 0.00 | 73 | 1011.7 |
| 20260507123718 | 57 | 175 | 5.2 | 11.3 | 0.00 | 0.00 | 0.00 | 74 | 1011.7 |
| 20260507123003 | 57 | 160 | 5.2 | 13.0 | 0.00 | 0.00 | 0.00 | 74 | 1011.7 |
| 20260507122503 | 58 | 173 | 5.2 | 13.0 | 0.00 | 0.00 | 0.00 | 73 | 1011.7 |
| 20260507122003 | 58 | 179 | 5.2 | 13.9 | 0.00 | 0.00 | 0.00 | 73 | 1011.7 |
| 20260507121718 | 58 | 177 | 6.1 | 14.8 | 0.00 | 0.00 | 0.00 | 73 | 1011.8 |
| 20260507121003 | 57 | 166 | 6.1 | 14.8 | 0.00 | 0.00 | 0.00 | 74 | 1011.9 |
| 20260507120503 | 56 | 164 | 5.2 | 13.9 | 0.00 | 0.00 | 0.00 | 76 | 1011.8 |
| 20260507120004 | 56 | 163 | 5.2 | 13.9 | 0.00 | 0.00 | 0.00 | 76 | 1011.9 |
| 20260507115503 | 56 | 168 | 5.2 | 12.2 | 0.00 | 0.00 | 0.00 | 76 | 1011.8 |
| 20260507115003 | 56 | 176 | 5.2 | 12.2 | 0.00 | 0.00 | 0.00 | 75 | 1011.7 |
| 20260507114503 | 57 | 174 | 4.3 | 13.0 | 0.00 | 0.00 | 0.00 | 71 | 1011.7 |
| 20260507114003 | 58 | 171 | 4.3 | 15.6 | 0.00 | 0.00 | 0.00 | 75 | 1011.8 |
| 20260507113503 | 59 | 173 | 5.2 | 15.6 | 0.00 | 0.00 | 0.00 | 76 | 1011.8 |
| 20260507113219 | 58 | 172 | 5.2 | 12.2 | 0.00 | 0.00 | 0.00 | 76 | 1011.8 |
| 20260507112503 | 58 | 170 | 4.3 | 9.6 | 0.00 | 0.00 | 0.00 | 76 | 1011.8 |
| 20260507112003 | 57 | 174 | 4.3 | 9.6 | 0.00 | 0.00 | 0.00 | 78 | 1011.7 |
| 20260507111504 | 57 | 170 | 4.3 | 10.4 | 0.00 | 0.00 | 0.00 | 78 | 1011.8 |
| 20260507111219 | 56 | 168 | 4.3 | 11.3 | 0.00 | 0.00 | 0.00 | 79 | 1011.8 |
| 20260507110503 | 56 | 173 | 4.3 | 11.3 | 0.00 | 0.00 | 0.00 | 80 | 1011.9 |
| 20260507110003 | 56 | 170 | 3.5 | 8.7 | 0.00 | 0.00 | 0.00 | 81 | 1011.9 |
| 20260507105503 | 56 | 163 | 2.6 | 7.8 | 0.00 | 0.00 | 0.00 | 82 | 1011.9 |
| 20260507105003 | 55 | 164 | 2.6 | 7.0 | 0.00 | 0.00 | 0.00 | 82 | 1012.0 |
| 20260507104504 | 55 | 174 | 2.6 | 6.1 | 0.00 | 0.00 | 0.00 | 82 | 1011.9 |
| 20260507104003 | 55 | 173 | 3.5 | 8.7 | 0.00 | 0.00 | 0.00 | 82 | 1011.9 |
| 20260507103503 | 55 | 168 | 3.5 | 8.7 | 0.00 | 0.00 | 0.00 | 83 | 1012.0 |
| 20260507103003 | 55 | 181 | 3.5 | 8.7 | 0.00 | 0.00 | 0.00 | 82 | 1012.0 |
| 20260507102503 | 55 | 189 | 3.5 | 8.7 | 0.00 | 0.00 | 0.00 | 83 | 1012.1 |
| 20260507102003 | 54 | 186 | 3.5 | 8.7 | 0.00 | 0.00 | 0.00 | 82 | 1012.1 |
| 20260507101503 | 54 | 190 | 2.6 | 7.8 | 0.00 | 0.00 | 0.00 | 83 | 1012.1 |
| 20260507101003 | 54 | 188 | 3.5 | 7.8 | 0.00 | 0.00 | 0.00 | 83 | 1012.1 |
| 20260507100503 | 54 | 194 | 2.6 | 7.8 | 0.00 | 0.00 | 0.00 | 83 | 1012.0 |
| 20260507100003 | 54 | 183 | 2.6 | 7.8 | 0.00 | 0.00 | 0.00 | 83 | 1012.0 |
| 20260507095503 | 54 | 184 | 2.6 | 7.8 | 0.00 | 0.00 | 0.00 | 84 | 1012.0 |
| 20260507095003 | 54 | 189 | 2.6 | 9.6 | 0.00 | 0.00 | 0.00 | 84 | 1012.0 |
| 20260507094503 | 53 | 179 | 3.5 | 9.6 | 0.00 | 0.00 | 0.00 | 84 | 1012.0 |
| 20260507094003 | 53 | 173 | 2.6 | 7.0 | 0.00 | 0.00 | 0.00 | 85 | 1012.0 |
| 20260507093503 | 53 | 189 | 2.6 | 7.0 | 0.00 | 0.00 | 0.00 | 84 | 1011.9 |
| 20260507093003 | 53 | 197 | 3.5 | 7.0 | 0.00 | 0.00 | 0.00 | 84 | 1012.0 |
| 20260507092503 | 53 | 186 | 2.6 | 7.0 | 0.00 | 0.00 | 0.00 | 84 | 1011.9 |
| 20260507092003 | 52 | 181 | 2.6 | 7.0 | 0.00 | 0.00 | 0.00 | 84 | 1012.1 |
| 20260507091503 | 52 | 175 | 2.6 | 7.0 | 0.00 | 0.00 | 0.00 | 84 | 1012.0 |
| 20260507091003 | 52 | 169 | 3.5 | 7.8 | 0.00 | 0.00 | 0.00 | 84 | 1012.1 |
| 20260507090503 | 52 | 171 | 2.6 | 7.8 | 0.00 | 0.00 | 0.00 | 84 | 1012.1 |
| 20260507090004 | 52 | 179 | 2.6 | 7.8 | 0.00 | 0.01 | 0.00 | 83 | 1012.1 |
| 20260507085503 | 52 | 181 | 2.6 | 7.8 | 0.00 | 0.01 | 0.00 | 84 | 1012.2 |
| 20260507085003 | 52 | 189 | 2.6 | 5.2 | 0.00 | 0.01 | 0.00 | 84 | 1012.0 |
| 20260507084503 | 52 | 191 | 1.7 | 5.2 | 0.00 | 0.02 | 0.00 | 85 | 1012.0 |
| 20260507084003 | 52 | 178 | 1.7 | 6.1 | 0.00 | 0.02 | 0.00 | 86 | 1012.0 |
| 20260507083717 | 51 | 180 | 2.6 | 6.1 | 0.00 | 0.02 | 0.00 | 86 | 1012.1 |
| 20260507083004 | 51 | 182 | 1.7 | 5.2 | 0.00 | 0.04 | 0.00 | 87 | 1012.0 |
| 20260507082719 | 51 | 185 | 1.7 | 6.1 | 0.00 | 0.04 | 0.00 | 88 | 1012.0 |
| 20260507082003 | 50 | 186 | 1.7 | 6.1 | 0.00 | 0.05 | 0.00 | 88 | 1012.1 |
| 20260507081503 | 50 | 178 | 1.7 | 6.1 | 0.00 | 0.06 | 0.00 | 90 | 1012.0 |
| 20260507081003 | 50 | 183 | 1.7 | 6.1 | 0.00 | 0.06 | 0.00 | 90 | 1012.0 |
| 20260507080503 | 50 | 190 | 1.7 | 6.1 | 0.00 | 0.07 | 0.00 | 91 | 1011.9 |
| 20260507080003 | 50 | 178 | 2.6 | 5.2 | 0.00 | 0.08 | 0.00 | 92 | 1012.0 |
| 20260507075503 | 50 | 179 | 1.7 | 5.2 | 0.00 | 0.08 | 0.00 | 92 | 1012.0 |
| 20260507075003 | 50 | 178 | 1.7 | 4.3 | 0.00 | 0.09 | 0.00 | 92 | 1012.0 |
| 20260507074503 | 49 | 178 | 1.7 | 4.3 | 0.00 | 0.09 | 0.00 | 93 | 1012.0 |
| 20260507074003 | 49 | 189 | 1.7 | 5.2 | 0.00 | 0.10 | 0.00 | 93 | 1011.9 |
| 20260507073716 | 49 | 187 | 1.7 | 5.2 | 0.00 | 0.11 | 0.00 | 93 | 1011.9 |
| 20260507073003 | 49 | 180 | 1.7 | 4.3 | 0.00 | 0.13 | 0.00 | 94 | 1011.9 |
| 20260507072503 | 49 | 189 | 1.7 | 6.1 | 0.00 | 0.13 | 0.00 | 94 | 1011.9 |
| 20260507072003 | 49 | 197 | 1.7 | 6.1 | 0.00 | 0.13 | 0.00 | 94 | 1011.9 |
| 20260507071504 | 48 | 192 | 1.7 | 4.3 | 0.00 | 0.13 | 0.00 | 95 | 1011.8 |
| 20260507071003 | 48 | 187 | 1.7 | 4.3 | 0.00 | 0.14 | 0.00 | 95 | 1011.9 |
| 20260507070503 | 48 | 190 | 1.7 | 4.3 | 0.00 | 0.14 | 0.00 | 96 | 1011.9 |
| 20260507070006 | 48 | 189 | 1.7 | 5.2 | 0.00 | 0.15 | 0.00 | 96 | 1011.8 |
| 20260507065503 | 48 | 177 | 1.7 | 5.2 | 0.00 | 0.15 | 0.00 | 96 | 1011.8 |
| 20260507065217 | 48 | 176 | 1.7 | 5.2 | 0.00 | 0.15 | 0.00 | 96 | 1011.8 |
| 20260507064503 | 48 | 177 | 1.7 | 6.1 | 0.00 | 0.16 | 0.00 | 96 | 1011.9 |
| 20260507064219 | 48 | 176 | 1.7 | 6.1 | 0.00 | 0.16 | 0.00 | 96 | 1011.9 |
| 20260507063503 | 48 | 170 | 2.6 | 6.1 | 0.00 | 0.16 | 0.00 | 96 | 1011.9 |
| 20260507063003 | 48 | 174 | 2.6 | 6.1 | 0.00 | 0.16 | 0.00 | 96 | 1011.8 |
| 20260507062718 | 47 | 173 | 2.6 | 6.1 | 0.00 | 0.16 | 0.00 | 96 | 1011.8 |
| 20260507062003 | 47 | 184 | 2.6 | 6.1 | 0.00 | 0.17 | 0.00 | 97 | 1011.8 |
| 20260507061503 | 47 | 190 | 1.7 | 5.2 | 0.00 | 0.17 | 0.00 | 97 | 1011.8 |
| 20260507061003 | 47 | 182 | 1.7 | 5.2 | 0.00 | 0.17 | 0.00 | 97 | 1011.8 |
| 20260507060503 | 47 | 168 | 1.7 | 4.3 | 0.00 | 0.17 | 0.00 | 97 | 1011.8 |
| 20260507060003 | 47 | 179 | 1.7 | 4.3 | 0.00 | 0.17 | 0.00 | 97 | 1011.8 |
| 20260507055716 | 47 | 190 | 1.7 | 4.3 | 0.00 | 0.17 | 0.00 | 97 | 1011.8 |
| 20260507055217 | 47 | 198 | 1.7 | 4.3 | 0.00 | 0.17 | 0.00 | 97 | 1011.7 |
| 20260507054503 | 47 | 192 | 1.7 | 5.2 | 0.00 | 0.17 | 0.00 | 97 | 1011.6 |
| 20260507054003 | 47 | 185 | 1.7 | 5.2 | 0.00 | 0.17 | 0.00 | 97 | 1011.6 |
| 20260507053715 | 47 | 178 | 1.7 | 5.2 | 0.00 | 0.17 | 0.00 | 97 | 1011.7 |
| 20260507053003 | 47 | 179 | 1.7 | 5.2 | 0.00 | 0.18 | 0.00 | 97 | 1011.6 |
| 20260507052503 | 47 | 189 | 1.7 | 5.2 | 0.00 | 0.18 | 0.00 | 97 | 1011.7 |
| 20260507052003 | 47 | 178 | 1.7 | 4.3 | 0.00 | 0.18 | 0.00 | 97 | 1011.6 |
| 20260507051503 | 47 | 173 | 1.7 | 4.3 | 0.00 | 0.18 | 0.00 | 98 | 1011.7 |
| 20260507051003 | 47 | 186 | 1.7 | 4.3 | 0.00 | 0.18 | 0.00 | 98 | 1011.7 |
| 20260507050503 | 47 | 193 | 1.7 | 4.3 | 0.00 | 0.18 | 0.00 | 98 | 1011.6 |
| 20260507050218 | 47 | 194 | 1.7 | 4.3 | 0.00 | 0.18 | 0.00 | 98 | 1011.7 |
| 20260507045719 | 47 | 189 | 1.7 | 4.3 | 0.00 | 0.18 | 0.00 | 98 | 1011.6 |
| 20260507045003 | 47 | 174 | 1.7 | 3.5 | 0.00 | 0.18 | 0.00 | 98 | 1011.5 |
| 20260507044503 | 47 | 170 | 0.9 | 3.5 | 0.00 | 0.18 | 0.00 | 98 | 1011.6 |
| 20260507044003 | 46 | 170 | 0.9 | 3.5 | 0.00 | 0.18 | 0.00 | 98 | 1011.5 |
| 20260507043503 | 46 | 171 | 0.9 | 4.3 | 0.00 | 0.18 | 0.00 | 98 | 1011.4 |
| 20260507043003 | 46 | 165 | 0.9 | 4.3 | 0.00 | 0.18 | 0.00 | 97 | 1011.5 |
| 20260507042503 | 46 | 167 | 0.9 | 3.5 | 0.00 | 0.18 | 0.00 | 97 | 1011.4 |
| 20260507042218 | 46 | 168 | 1.7 | 4.3 | 0.00 | 0.18 | 0.00 | 97 | 1011.4 |
| 20260507041503 | 46 | 172 | 1.7 | 4.3 | 0.00 | 0.18 | 0.00 | 97 | 1011.4 |
| 20260507041003 | 46 | 175 | 0.9 | 2.6 | 0.00 | 0.18 | 0.00 | 97 | 1011.3 |
| 20260507040503 | 46 | 173 | 0.9 | 3.5 | 0.00 | 0.18 | 0.00 | 97 | 1011.4 |
| 20260507040003 | 46 | 176 | 0.9 | 3.5 | 0.00 | 0.18 | 0.00 | 97 | 1011.4 |
| 20260507035503 | 46 | 174 | 0.9 | 3.5 | 0.00 | 0.18 | 0.00 | 97 | 1011.4 |
| 20260507035003 | 46 | 173 | 0.9 | 5.2 | 0.00 | 0.18 | 0.00 | 97 | 1011.4 |
| 20260507034717 | 47 | 185 | 1.7 | 5.2 | 0.00 | 0.18 | 0.00 | 97 | 1011.4 |